Find Starlink 31160

NORAD ID: 58749 Int'l Des: 2024-005 Owner: SPXS Country: US Constellation: starlink operational
LEOCIRCULAR

Live-Position

3D-Globus wird geladen...

Über Starlink 31160

Beschreibung wird geladen...

Nächste Überflüge

Passes for default location (London). Set your location on the main map for personalized predictions.

Höhenverlauf

Loading altitude history...

Zweizeiliger Elementsatz

1 58749U 24005X 26122.46063105 -.00000406 00000-0 -51980-5 0 9992
2 58749 43.0010 276.3277 0002131 277.1079 82.9530 15.27613555128667
Epoch: 2. Mai 2026 • Age: 9 hours

Aktueller Status

Höhe 482.6 km
Geschwindigkeit 7.63 km/s
Subsatellitenpunkt 6.52°N, 68.09°W
Startdatum 7. Jan. 2024
Alter 2.3 years
Typ internet

Technische Details

Klassifizierung Payload
Masse 730.00 kg
Trockenmasse 700.00 kg
Gesamtmasse 730.00 kg
Länge 0.30 m
Durchmesser 4.10 m
Spannweite 29.00 m
Form Box + pan
Hersteller SPXS
Bus-Typ Starlink V2M
Phasenstatus In Orbit
Besitzer/Staat SPXS/US

Most Searched